SR1WXW Weather Reports


time (UTC)temp
F
wind
direction
speed
knots
gust
knots
rain 1hr
in
rain 24hr
in
rain mn
in
humidity
%
barometer
mb
20260902021607 53 202 0.9 1.7 0.00 0.32 0.00 90 1012.0
20260902021107 53 202 0.9 0.9 0.00 0.32 0.00 90 1011.9
20260902020607 53 202 0.9 1.7 0.00 0.32 0.00 90 1012.0
20260902020107 53 202 0.9 0.9 0.00 0.32 0.00 90 1012.0
20260902015607 53 202 0.0 1.7 0.00 0.32 0.00 90 1012.0
20260902015107 53 202 0.0 1.7 0.00 0.32 0.00 90 1012.1
20260902014607 53 180 0.0 1.7 0.00 0.32 0.00 90 1012.1
20260902014107 53 202 0.9 0.9 0.00 0.32 0.00 90 1012.0
20260902013607 53 202 0.0 0.9 0.00 0.32 0.00 90 1012.0
20260902013107 54 202 0.0 0.9 0.00 0.32 0.00 90 1012.0
20260902012607 54 180 0.0 0.9 0.00 0.32 0.00 90 1012.0
20260902012107 54 202 0.0 0.9 0.00 0.32 0.00 90 1011.9
20260902011607 54 202 0.0 1.7 0.00 0.32 0.00 90 1012.0
20260902011107 54 202 0.9 1.7 0.00 0.32 0.00 90 1012.0
20260902010607 54 225 0.0 0.9 0.00 0.32 0.00 90 1011.9
20260902010107 54 225 0.0 0.9 0.00 0.42 0.00 90 1012.0
20260902005607 54 225 0.0 1.7 0.00 0.42 0.00 90 1011.9
20260902005107 54 225 0.9 0.9 0.00 0.42 0.00 90 1011.9
20260902004607 54 225 0.0 0.9 0.00 0.42 0.00 90 1011.9
20260902004107 54 202 0.0 0.0 0.00 0.42 0.00 90 1011.8
20260902003607 54 225 0.0 0.0 0.00 0.42 0.00 90 1011.9
20260902003107 54 225 0.0 2.6 0.00 0.42 0.00 90 1011.9
20260902002607 54 247 0.0 0.0 0.00 0.42 0.00 90 1012.0
20260902002107 54 225 0.0 0.0 0.00 0.42 0.00 90 1011.9
20260902001607 54 225 0.0 0.0 0.00 0.42 0.00 90 1011.7
20260902001107 55 225 0.0 0.9 0.00 0.42 0.00 90 1011.8
20260902000607 55 225 0.0 0.0 0.00 0.42 0.00 90 1011.7
20260902000107 55 225 0.0 0.9 0.00 0.42 0.00 90 1011.6
20260901235607 55 202 0.0 0.9 0.00 0.42 0.00 90 1011.7
20260901235107 55 225 0.0 0.0 0.00 0.42 0.00 90 1011.9
20260901234607 55 202 0.0 0.0 0.00 0.42 0.00 90 1012.0
20260901234107 55 202 0.0 0.9 0.00 0.42 0.00 90 1012.0
20260901233607 55 202 0.0 0.0 0.00 0.42 0.00 90 1011.9
20260901233107 55 202 0.0 0.0 0.00 0.42 0.00 90 1011.9
20260901232607 55 202 0.0 0.9 0.00 0.42 0.00 90 1012.0
20260901232107 55 202 0.0 1.7 0.00 0.42 0.00 90 1011.9
20260901231607 55 225 0.9 1.7 0.00 0.42 0.00 90 1011.9
20260901231107 55 202 0.9 1.7 0.00 0.42 0.00 90 1011.9
20260901230607 56 202 0.0 1.7 0.00 0.42 0.00 90 1012.0
20260901230107 56 202 0.0 0.9 0.00 0.42 0.00 90 1011.9
20260901225607 56 202 0.9 0.9 0.00 0.48 0.00 90 1011.8
20260901225107 56 247 0.0 0.9 0.00 0.48 0.00 90 1011.7
20260901224607 56 270 0.0 0.0 0.00 0.48 0.00 90 1011.6
20260901224107 56 270 0.0 1.7 0.00 0.48 0.00 89 1011.9
20260901223607 56 247 0.0 0.9 0.00 0.48 0.00 89 1011.8
20260901223107 56 247 0.0 0.9 0.00 0.48 0.00 89 1011.7
20260901222607 56 247 0.0 0.9 0.00 0.48 0.00 89 1011.8
20260901222107 56 247 0.0 0.9 0.00 0.48 0.00 89 1011.9
20260901221607 56 247 0.0 0.9 0.00 0.48 0.00 89 1011.8
20260901221107 56 225 0.0 1.7 0.00 0.48 0.00 89 1011.8
20260901220607 56 202 0.0 1.7 0.00 0.48 0.00 89 1011.7
20260901220107 56 225 0.0 1.7 0.00 0.48 0.00 89 1011.7
20260901215607 56 225 0.9 0.9 0.00 0.48 0.00 89 1011.7
20260901215107 56 180 0.9 0.9 0.00 0.48 0.00 89 1011.7
20260901214607 56 202 0.0 0.9 0.00 0.48 0.00 89 1011.7
20260901214107 56 202 0.0 0.9 0.00 0.48 0.00 88 1011.6
20260901213607 56 270 0.0 0.0 0.00 0.48 0.00 88 1011.7
20260901213107 56 247 0.0 1.7 0.00 0.48 0.00 88 1011.5
20260901212607 56 202 0.9 0.9 0.00 0.48 0.00 88 1011.6
20260901212107 56 202 0.0 0.9 0.00 0.48 0.00 88 1011.6
20260901211607 56 180 0.0 0.9 0.00 0.48 0.00 88 1011.5
20260901211107 56 225 0.0 0.0 0.00 0.48 0.00 88 1011.5
20260901210608 57 202 0.0 0.9 0.00 0.48 0.00 88 1011.5
20260901210107 57 225 0.0 0.0 0.00 0.48 0.00 88 1011.5
20260901205607 57 202 0.0 0.0 0.00 0.48 0.00 89 1011.4
20260901205108 57 202 0.0 0.0 0.00 0.48 0.00 89 1011.4
20260901204607 57 202 0.0 0.9 0.00 0.48 0.00 89 1011.5
20260901204108 57 202 0.9 0.9 0.00 0.48 0.00 89 1011.6
20260901203608 57 180 0.0 0.9 0.00 0.48 0.00 89 1011.6
20260901203108 57 180 0.0 0.9 0.00 0.48 0.00 88 1011.6
20260901202608 57 202 0.0 1.7 0.00 0.48 0.00 88 1011.4
20260901202108 57 202 0.0 0.9 0.00 0.48 0.00 88 1011.5
20260901201608 57 225 0.0 0.9 0.00 0.48 0.00 88 1011.5
20260901201108 57 225 0.9 1.7 0.00 0.48 0.00 88 1011.5
20260901200608 57 225 0.9 1.7 0.00 0.48 0.00 88 1011.5
20260901200108 57 247 0.9 0.9 0.00 0.48 0.00 88 1011.4
20260901195608 58 247 0.0 1.7 0.00 0.50 0.00 88 1011.3
20260901195108 58 225 0.9 1.7 0.00 0.50 0.00 88 1011.4
20260901194608 58 247 0.9 1.7 0.00 0.50 0.00 88 1011.2
20260901194108 58 270 0.9 0.9 0.00 0.50 0.00 88 1011.1
20260901193608 58 247 0.9 1.7 0.00 0.50 0.00 88 1011.2
20260901193108 58 202 0.0 1.7 0.00 0.50 0.00 88 1011.2
20260901192608 58 202 0.9 0.9 0.00 0.50 0.00 88 1011.2
20260901192108 58 180 0.0 0.9 0.00 0.50 0.00 88 1011.2
20260901191608 58 202 0.9 1.7 0.00 0.50 0.00 88 1011.1
20260901191108 58 180 0.0 0.9 0.00 0.50 0.00 88 1011.1
20260901190608 58 180 1.7 1.7 0.00 0.50 0.00 87 1011.1
20260901190108 59 202 0.0 0.0 0.02 0.63 0.00 87 1011.0
20260901185608 59 202 0.0 0.0 0.02 0.63 0.00 87 1011.0
20260901185108 59 202 0.0 0.0 0.02 0.63 0.00 87 1011.0
20260901184608 59 202 0.0 0.0 0.02 0.63 0.00 87 1011.0
20260901184108 59 202 0.0 0.9 0.02 0.63 0.00 87 1011.0
20260901183608 59 202 0.9 1.7 0.02 0.63 0.00 87 1011.0
20260901183108 59 202 0.9 1.7 0.02 0.63 0.00 87 1010.9
20260901182608 59 180 0.9 1.7 0.02 0.63 0.00 87 1011.0
20260901182108 60 180 0.9 3.5 0.02 0.63 0.00 87 1010.9
20260901181608 60 202 1.7 1.7 0.02 0.63 0.00 87 1010.9
20260901181108 60 202 1.7 1.7 0.02 0.63 0.00 87 1010.7
20260901180608 60 202 0.9 1.7 0.02 0.63 0.00 87 1010.6
20260901180108 60 202 0.0 2.6 0.00 0.61 0.00 87 1010.6
20260901175608 60 202 0.0 1.7 0.00 0.63 0.00 87 1010.5
20260901175108 60 225 0.0 1.7 0.00 0.63 0.00 87 1010.6
20260901174608 60 202 0.9 1.7 0.00 0.63 0.00 87 1010.7
20260901174108 60 202 0.9 1.7 0.00 0.63 0.00 87 1010.7
20260901173608 61 202 0.0 1.7 0.00 0.63 0.00 86 1010.7
20260901173108 61 225 0.0 0.9 0.00 0.63 0.00 86 1010.6
20260901172608 61 202 0.0 0.9 0.00 0.63 0.00 86 1010.6
20260901172108 61 202 0.0 0.0 0.00 0.63 0.00 86 1010.5
20260901171608 61 225 0.0 0.0 0.00 0.63 0.00 86 1010.6
20260901171108 61 225 0.0 0.9 0.00 0.63 0.00 86 1010.5
20260901170608 61 202 0.0 0.9 0.00 0.63 0.00 86 1010.5
20260901170108 61 202 0.0 0.9 0.00 0.63 0.00 86 1010.5
20260901165608 61 225 0.0 0.0 0.00 0.65 0.00 86 1010.5
20260901165108 61 202 0.0 0.9 0.00 0.65 0.00 86 1010.4
20260901164608 61 225 0.0 0.9 0.00 0.65 0.00 86 1010.5
20260901164108 62 202 0.0 0.0 0.04 0.65 0.00 86 1010.3
20260901163608 62 247 0.0 0.9 0.04 0.65 0.00 85 1010.4
20260901163108 62 247 0.0 1.7 0.04 0.65 0.00 85 1010.3
20260901162608 62 225 0.0 0.9 0.04 0.65 0.00 85 1010.4
20260901162108 62 202 0.9 0.9 0.04 0.65 0.00 86 1010.3
20260901161608 62 202 0.0 0.9 0.04 0.65 0.00 86 1010.3
20260901161108 63 247 0.0 0.9 0.04 0.65 0.00 85 1010.3
20260901160608 63 225 0.0 1.7 0.04 0.65 0.00 85 1010.4
20260901160108 63 247 0.0 0.9 0.04 0.65 0.00 84 1010.4
20260901155608 63 270 0.0 0.0 0.04 0.65 0.00 84 1010.3
20260901155108 64 270 0.0 1.7 0.04 0.65 0.00 84 1010.3
20260901154608 64 270 0.0 2.6 0.02 0.63 0.00 84 1010.3
20260901154108 65 247 0.0 0.0 0.00 0.61 0.00 84 1010.2
20260901153608 65 202 0.0 0.0 0.00 0.61 0.00 84 1010.1
20260901153108 65 202 0.0 0.0 0.00 0.61 0.00 84 1010.2
20260901152608 65 202 0.0 0.9 0.00 0.61 0.00 85 1010.1
20260901152108 64 225 0.0 1.7 0.00 0.61 0.00 85 1010.2
20260901151608 64 202 0.0 0.9 0.00 0.61 0.00 85 1010.0
20260901151108 64 225 0.9 1.7 0.00 0.61 0.00 84 1010.0
20260901150608 64 180 0.0 0.9 0.00 0.61 0.00 84 1010.0
20260901150108 64 270 0.0 1.7 0.00 0.61 0.00 84 1010.0
20260901145608 64 225 0.9 0.9 0.00 0.61 0.00 84 1010.0
20260901145108 64 225 0.0 1.7 0.00 0.61 0.00 84 1010.0
20260901144608 64 225 0.0 1.7 0.00 0.61 0.00 84 1010.0
20260901144108 64 247 0.0 1.7 0.00 0.61 0.00 84 1010.0
20260901143608 64 202 0.9 0.9 0.00 0.61 0.00 84 1009.9
20260901143108 64 270 0.0 1.7 0.00 0.61 0.00 84 1009.8
20260901142608 64 202 0.0 3.5 0.00 0.61 0.00 84 1009.9
20260901142108 64 247 0.9 1.7 0.00 0.61 0.00 84 1009.8
20260901141608 64 270 0.9 1.7 0.00 0.61 0.00 84 1009.8
20260901141108 64 270 0.0 1.7 0.00 0.61 0.00 84 1009.8
20260901140608 64 247 0.0 2.6 0.00 0.61 0.00 84 1009.8
20260901140108 65 225 2.6 2.6 0.06 0.61 0.00 84 1009.8
20260901135608 64 247 1.7 3.5 0.14 0.61 0.00 84 1009.6
20260901135108 64 270 1.7 1.7 0.14 0.61 0.00 84 1009.7
20260901134609 64 247 0.9 2.6 0.14 0.61 0.00 84 1009.9
20260901134109 64 202 0.9 1.7 0.14 0.61 0.00 83 1009.9
20260901133609 64 270 0.0 1.7 0.14 0.61 0.00 83 1010.1
20260901133109 64 270 0.9 4.3 0.14 0.61 0.00 83 1010.0
20260901132609 64 270 0.0 3.5 0.14 0.61 0.00 82 1010.0
20260901132109 64 247 0.0 1.7 0.14 0.61 0.00 81 1010.1
20260901131609 64 225 2.6 2.6 0.14 0.61 0.00 79 1010.1
20260901131109 66 112 1.7 2.6 0.14 0.61 0.00 78 1010.0
20260901130609 66 270 1.7 4.3 0.12 0.59 0.00 77 1009.9
20260901130109 68 247 4.3 6.1 0.02 0.48 0.00 75 1009.8
20260901125609 68 247 3.5 3.5 0.00 0.46 0.00 75 1009.4
20260901125109 69 292 2.6 3.5 0.00 0.46 0.00 76 1009.3
20260901124609 69 270 1.7 4.3 0.00 0.46 0.00 77 1009.3
20260901124109 68 247 3.5 4.3 0.00 0.46 0.00 78 1009.2
20260901123609 68 270 0.9 3.5 0.00 0.46 0.00 79 1009.3
20260901123109 68 135 0.9 3.5 0.00 0.46 0.00 79 1009.3
20260901122609 68 247 0.0 1.7 0.00 0.46 0.00 80 1009.2
20260901122109 68 270 0.9 3.5 0.00 0.46 0.00 80 1009.3
20260901121609 68 270 0.9 2.6 0.00 0.46 0.00 81 1009.3
20260901121109 68 270 0.0 4.3 0.00 0.46 0.00 81 1009.3
20260901120609 68 202 1.7 4.3 0.00 0.46 0.00 82 1009.3
20260901120109 67 292 0.9 1.7 0.00 0.46 0.00 83 1009.3
20260901115609 67 225 0.0 1.7 0.02 0.46 0.00 83 1009.3
20260901115109 67 225 0.0 1.7 0.02 0.46 0.00 83 1009.3
20260901114609 67 270 1.7 2.6 0.02 0.46 0.00 84 1009.2
20260901114109 66 270 0.9 3.5 0.02 0.46 0.00 84 1009.3
20260901113609 66 270 0.9 5.2 0.02 0.46 0.00 84 1009.2
20260901113109 66 270 0.9 1.7 0.02 0.46 0.00 84 1009.2
20260901112609 66 270 0.9 2.6 0.02 0.46 0.00 84 1009.3
20260901112109 66 247 0.0 0.9 0.02 0.46 0.00 83 1009.3
20260901111609 66 270 0.0 1.7 0.02 0.46 0.00 82 1009.3
20260901111109 67 247 0.0 1.7 0.02 0.46 0.00 81 1009.3
20260901110609 67 270 0.9 2.6 0.02 0.46 0.00 82 1009.3
20260901110109 68 247 1.7 3.5 0.00 0.44 0.00 83 1009.1
20260901105609 68 225 3.5 3.5 0.00 0.46 0.00 85 1009.1
20260901105109 67 247 1.7 5.2 0.00 0.46 0.00 85 1009.0
20260901104609 67 270 0.0 3.5 0.00 0.46 0.00 85 1008.9
20260901104109 66 225 0.0 3.5 0.00 0.46 0.00 86 1008.9
20260901103609 66 270 0.0 1.7 0.00 0.46 0.00 87 1009.0
20260901103109 66 180 1.7 2.6 0.00 0.46 0.00 88 1009.0
20260901102609 66 270 0.0 1.7 0.00 0.46 0.00 87 1009.0
20260901102109 65 247 0.0 1.7 0.00 0.46 0.00 88 1009.2
20260901101609 65 270 0.9 1.7 0.02 0.46 0.00 88 1009.1
20260901101109 64 247 0.9 2.6 0.04 0.46 0.00 88 1008.9
20260901100609 64 202 0.9 2.6 0.04 0.46 0.00 88 1009.0
20260901100109 63 202 0.9 1.7 0.04 0.46 0.00 88 1009.0
20260901095609 63 202 0.0 2.6 0.04 0.46 0.00 88 1009.1
20260901095109 62 225 0.9 1.7 0.04 0.46 0.00 88 1009.1
20260901094609 62 270 0.0 1.7 0.04 0.46 0.00 87 1009.1
20260901094109 61 202 0.0 1.7 0.04 0.46 0.00 87 1009.0
20260901093609 61 247 0.0 3.5 0.04 0.46 0.00 86 1009.0
20260901093109 62 202 0.0 1.7 0.04 0.46 0.00 86 1009.1
20260901092609 62 180 1.7 2.6 0.04 0.46 0.00 86 1009.1
20260901092109 62 202 0.9 1.7 0.02 0.44 0.00 86 1008.9
20260901091609 62 202 1.7 2.6 0.02 0.44 0.00 86 1008.9
20260901091109 62 180 0.0 2.6 0.00 0.42 0.00 86 1008.9
20260901090609 63 225 0.9 3.5 0.00 0.42 0.00 86 1008.8
20260901090109 62 225 0.9 1.7 0.00 0.42 0.00 86 1008.8
20260901085609 62 202 0.0 1.7 0.00 0.42 0.00 86 1008.8
20260901085109 63 202 0.9 1.7 0.00 0.42 0.00 86 1008.8
20260901084609 63 202 1.7 1.7 0.00 0.42 0.00 87 1008.7
20260901084109 62 247 1.7 1.7 0.00 0.42 0.00 87 1008.8
20260901083609 62 225 0.0 1.7 0.00 0.42 0.00 87 1008.8
20260901083109 62 202 1.7 1.7 0.00 0.42 0.00 87 1008.8
20260901082609 62 247 0.9 2.6 0.00 0.42 0.00 88 1008.7
20260901082109 61 225 0.9 3.5 0.00 0.42 0.00 87 1008.7
20260901081609 61 225 0.9 2.6 0.00 0.42 0.00 87 1008.7
20260901081109 62 247 0.0 2.6 0.00 0.42 0.00 87 1008.6
20260901080609 62 225 0.0 2.6 0.00 0.42 0.00 87 1008.6
20260901080109 62 225 1.7 2.6 0.00 0.42 0.00 88 1008.4
20260901075609 63 225 1.7 4.3 0.00 0.42 0.00 89 1008.3
20260901075109 63 225 1.7 1.7 0.00 0.42 0.00 89 1008.3
20260901074609 62 202 1.7 1.7 0.00 0.42 0.00 90 1008.3
20260901074109 61 247 0.0 1.7 0.00 0.42 0.00 90 1008.1
20260901073609 61 202 0.0 1.7 0.00 0.42 0.00 89 1008.2
20260901073109 61 247 0.0 2.6 0.00 0.42 0.00 90 1008.2
20260901072609 61 225 0.0 3.5 0.00 0.42 0.00 91 1008.1
20260901072109 61 225 3.5 4.3 0.00 0.42 0.00 91 1008.1
20260901071609 61 225 0.9 0.9 0.00 0.42 0.00 91 1007.9
20260901071109 60 270 0.0 1.7 0.00 0.42 0.00 91 1007.9
20260901070609 60 270 0.0 1.7 0.00 0.42 0.00 91 1007.8
20260901070109 60 270 0.0 2.6 0.00 0.42 0.00 91 1007.8
20260901065609 59 225 1.7 2.6 0.00 0.42 0.00 91 1007.8
20260901065109 59 225 0.0 1.7 0.00 0.42 0.00 91 1007.7
20260901064609 59 202 0.0 1.7 0.00 0.42 0.00 91 1007.6
20260901064110 59 247 0.0 1.7 0.00 0.42 0.00 91 1007.7
20260901063610 58 202 0.9 1.7 0.00 0.42 0.00 91 1007.5
20260901063110 58 270 1.7 1.7 0.00 0.42 0.00 91 1007.5
20260901062610 58 270 0.9 1.7 0.00 0.42 0.00 91 1007.4
20260901062110 58 202 0.9 1.7 0.00 0.42 0.00 91 1007.4
20260901061610 58 202 1.7 1.7 0.00 0.42 0.00 91 1007.3
20260901061110 57 270 1.7 1.7 0.00 0.42 0.00 91 1007.2
20260901060610 57 270 0.0 0.9 0.00 0.42 0.00 91 1007.2
20260901060110 57 135 0.0 1.7 0.00 0.42 0.00 91 1007.1
20260901055610 57 225 0.0 0.9 0.00 0.42 0.00 91 1007.1
20260901055110 57 202 0.0 1.7 0.00 0.42 0.00 91 1007.1
20260901054610 57 225 0.0 1.7 0.00 0.42 0.00 91 1007.0
20260901054110 57 157 0.9 1.7 0.02 0.42 0.00 91 1006.9
20260901053610 57 270 0.0 2.6 0.04 0.42 0.00 91 1006.8
20260901053110 57 270 0.0 1.7 0.06 0.42 0.00 91 1006.7
20260901052610 57 180 0.9 1.7 0.06 0.42 0.00 91 1006.6
20260901052110 57 225 0.0 1.7 0.06 0.42 0.00 91 1006.6
20260901051610 57 225 1.7 2.6 0.06 0.42 0.00 91 1006.6
20260901051110 57 247 0.0 3.5 0.06 0.42 0.00 91 1006.5
20260901050610 57 202 0.9 1.7 0.06 0.42 0.00 91 1006.6
20260901050110 57 225 1.7 1.7 0.06 0.42 0.00 91 1006.6
20260901045610 57 270 0.0 0.9 0.06 0.42 0.00 91 1006.6
20260901045110 57 247 0.0 1.7 0.06 0.42 0.00 91 1006.6
20260901044610 57 247 1.7 1.7 0.04 0.40 0.00 91 1006.5
20260901044110 57 270 0.0 1.7 0.04 0.40 0.00 91 1006.6
20260901043610 57 225 0.9 1.7 0.02 0.38 0.00 91 1006.5
20260901043110 57 225 0.9 1.7 0.00 0.36 0.00 91 1006.5
20260901042610 57 202 0.0 4.3 0.00 0.36 0.00 91 1006.4
20260901042110 57 202 1.7 2.6 0.00 0.36 0.00 91 1006.4
20260901041610 57 135 0.9 1.7 0.00 0.36 0.00 91 1006.4
20260901041110 57 157 0.0 1.7 0.00 0.36 0.00 91 1006.4
20260901040610 57 202 0.9 1.7 0.00 0.36 0.00 91 1006.3
20260901040110 57 202 1.7 3.5 0.00 0.36 0.00 91 1006.4
20260901035610 57 202 0.9 1.7 0.00 0.36 0.00 91 1006.4
20260901035110 57 202 0.9 1.7 0.00 0.36 0.00 91 1006.4
20260901034610 57 202 0.0 1.7 0.00 0.36 0.00 91 1006.4
20260901034110 57 202 0.9 1.7 0.00 0.36 0.00 91 1006.4
20260901033610 57 180 0.0 1.7 0.00 0.36 0.00 90 1006.3
20260901033110 57 180 0.0 1.7 0.00 0.36 0.00 90 1006.4
20260901032610 57 202 0.9 1.7 0.00 0.36 0.00 90 1006.3
20260901032110 57 202 0.0 1.7 0.00 0.36 0.00 90 1006.3
20260901031610 57 180 0.9 1.7 0.00 0.36 0.00 90 1006.3
20260901031110 57 180 0.9 1.7 0.00 0.36 0.00 90 1006.3
20260901030610 57 202 0.0 1.7 0.00 0.36 0.00 90 1006.2
20260901030110 57 180 1.7 2.6 0.00 0.36 0.00 90 1006.2
20260901025610 57 157 1.7 2.6 0.00 0.36 0.00 90 1006.2
20260901025110 57 180 1.7 2.6 0.00 0.36 0.00 90 1006.2
20260901024610 57 202 1.7 1.7 0.00 0.36 0.00 90 1006.1
20260901024110 57 180 1.7 1.7 0.00 0.36 0.00 90 1006.2
20260901023610 57 202 1.7 1.7 0.00 0.36 0.00 90 1006.3
20260901023110 57 202 0.9 1.7 0.02 0.36 0.00 90 1006.2
20260901022610 57 157 1.7 1.7 0.02 0.36 0.00 90 1006.2
20260901022110 57 180 0.9 1.7 0.04 0.36 0.00 90 1006.4